[[{"header":{"parameterUnit":"m.s-1","parameterCategory":1,"la1":30.2992,"la2":30.254,"lo1":-89.0895,"lo2":-89.0443,"dy":0.0025,"dx":0.0025,"nx":19,"ny":19,"refTime":"2026-05-08T09:00:00:Z","depth":0,"parameterNumber":2,"parameterNumberName":"U-component_of_WINDS"},"data":[0,0,0,2.189,2.1893,2.2021,2.2021,2.2187,2.2188,0,0,0,0,0,0,0,0,0,0,0,2.1848,2.1849,2.189,2.1893,2.2021,2.2021,2.2187,2.2188,0,0,0,0,0,0,0,0,0,0,0,2.1848,2.1849,2.185,2.1893,2.2021,2.2021,2.2186,2.209,0,0,0,0,0,0,0,0,0,0,2.1966,2.1922,2.1849,2.185,2.1894,2.2021,2.2022,2.2085,2.2096,2.2128,0,2.2152,0,2.2172,2.2199,2.22,0,0,0,2.1896,2.1913,2.1951,2.185,2.1895,2.202,2.1964,2.2091,2.2103,2.2142,2.2154,2.216,2.2175,2.22,2.2201,2.2367,2.2368,0,0,2.1889,2.187,2.1943,2.1959,2.1934,2.196,2.1968,2.2099,2.2112,2.2155,2.2164,2.2178,2.2201,2.2202,2.2367,2.2368,0,0,0,2.1867,2.1865,2.19,2.1952,2.1975,2.1964,2.1973,2.2106,2.2119,2.2166,2.218,2.2202,2.2204,2.2366,2.2367,2.2378,0,0,0,2.1863,2.1852,2.1896,2.1886,2.1972,2.2041,2.1977,2.211,2.2125,2.2179,2.2202,2.2206,2.2365,2.2367,2.2376,2.2387,0,0,0,2.1841,2.1849,2.1866,2.1884,2.1938,2.2039,2.206,2.2113,2.2133,2.22,2.2206,2.2365,2.2366,2.2375,2.2384,2.2426,0,0,0,2.1814,2.1874,2.1866,2.1939,2.1937,2.2044,2.2059,2.214,2.2198,2.2203,2.2366,2.2367,2.2374,2.2383,2.2424,2.2458,2.247,0,0,2.1879,2.1881,2.1926,2.1923,2.2025,2.2026,2.2133,2.2205,2.2231,2.2322,2.2326,2.2377,2.2384,2.2426,2.2543,2.2552,0,0,0,2.194,2.1972,2.2004,2.2057,2.2113,2.2164,2.2222,2.225,2.2328,2.2272,2.2404,2.2409,2.2434,2.2452,2.2459,2.2484,2.2374,2.2374,2.2374,2.2003,2.2032,2.211,2.2156,2.2208,2.227,2.2317,2.2366,2.2379,2.2411,2.2437,2.2504,2.2524,2.253,2.2555,2.2457,2.2458,2.2458,2.2458,2.2102,2.2153,2.2173,2.2254,2.2287,2.2358,2.2422,2.243,2.2504,2.2485,2.251,2.2487,2.2539,2.2562,2.2459,2.2459,2.2458,2.2458,2.2458,2.2147,2.2177,2.2209,2.2293,2.2356,2.2402,2.2473,2.25,2.2527,2.2551,2.2584,2.2584,2.2589,2.2565,2.2565,2.2565,2.2565,2.2566,2.2566,2.218,2.2217,2.2271,2.2339,2.238,2.2437,2.2504,2.2546,2.26,2.2616,2.2616,2.2629,2.2538,2.2514,2.257,2.2569,2.2568,2.2568,2.2568,2.227,2.2255,2.2338,2.2379,2.2464,2.2527,2.2562,2.2647,2.2687,2.2722,2.2731,2.2659,2.2663,2.2657,2.2639,2.2723,2.2723,2.2723,2.2723,2.2308,2.2313,2.2406,2.2471,2.2538,2.2579,2.2679,2.2734,2.2789,2.2816,2.2809,2.2786,2.2779,2.2788,2.2779,2.2762,2.2876,2.2876,2.2876,2.2365,2.2379,2.2455,2.2506,2.2577,2.2638,2.2734,2.2811,2.2871,2.2883,2.2839,2.2833,2.2797,2.2783,2.2792,2.2778,2.2747,0,0]},{"header":{"parameterUnit":"m.s-1","parameterCategory":1,"la1":30.2992,"la2":30.254,"lo1":-89.0895,"lo2":-89.0443,"dy":0.0025,"dx":0.0025,"nx":19,"ny":19,"refTime":"2026-05-08T09:00:00:Z","depth":0,"parameterNumber":3,"parameterNumberName":"V-component_of_WINDS"},"data":[0,0,0,1.7524,1.7524,1.7541,1.7541,1.7538,1.7538,0,0,0,0,0,0,0,0,0,0,0,1.7509,1.7508,1.7524,1.7524,1.7541,1.7541,1.7538,1.7538,0,0,0,0,0,0,0,0,0,0,0,1.7509,1.7508,1.7508,1.7524,1.7541,1.7541,1.7538,1.7534,0,0,0,0,0,0,0,0,0,0,1.7521,1.7498,1.7509,1.7508,1.7525,1.7541,1.7541,1.7534,1.7534,1.7522,0,1.7511,0,1.7524,1.7537,1.7537,0,0,0,1.7532,1.7497,1.7512,1.7508,1.7525,1.7541,1.7536,1.7534,1.7534,1.7522,1.7511,1.7512,1.7524,1.7537,1.7536,1.7446,1.7445,0,0,1.7531,1.7505,1.7511,1.7511,1.7511,1.7535,1.7536,1.7534,1.752,1.7511,1.7512,1.7524,1.7536,1.7536,1.7446,1.7445,0,0,0,1.7523,1.7504,1.7519,1.7511,1.7516,1.7535,1.7537,1.752,1.7527,1.7512,1.7524,1.7536,1.7536,1.7447,1.7446,1.7382,0,0,0,1.7523,1.75,1.7518,1.7503,1.7515,1.7519,1.7522,1.7528,1.7528,1.7524,1.7536,1.7536,1.7448,1.7447,1.7386,1.7355,0,0,0,1.7511,1.7499,1.7498,1.7502,1.7508,1.752,1.7527,1.7528,1.7535,1.7537,1.7536,1.7449,1.7447,1.7389,1.7361,1.7321,0,0,0,1.7491,1.7442,1.7497,1.7447,1.7508,1.7481,1.7527,1.7509,1.7503,1.7536,1.7448,1.7446,1.739,1.7364,1.7324,1.7281,1.7262,0,0,1.7415,1.7432,1.7405,1.7454,1.7411,1.7481,1.7428,1.7446,1.7468,1.7451,1.7449,1.7384,1.7361,1.7322,1.7166,1.7151,0,0,0,1.7372,1.7351,1.7346,1.7339,1.7352,1.7358,1.7388,1.7393,1.7379,1.7456,1.7362,1.7349,1.7326,1.7306,1.7293,1.7273,1.7437,1.7437,1.7437,1.7228,1.7259,1.7214,1.7246,1.7238,1.7267,1.7262,1.7273,1.7309,1.7285,1.728,1.7182,1.7158,1.7148,1.7127,1.7262,1.7262,1.7261,1.7261,1.7117,1.7091,1.7137,1.7109,1.714,1.7116,1.7139,1.7164,1.7142,1.719,1.7172,1.7218,1.713,1.7113,1.7257,1.7258,1.7258,1.7259,1.7259,1.7024,1.7017,1.7025,1.7015,1.7003,1.7036,1.7013,1.7044,1.7072,1.7054,1.7048,1.7049,1.7051,1.7049,1.7049,1.7049,1.7048,1.7048,1.7048,1.6924,1.6935,1.6913,1.6919,1.6916,1.6916,1.694,1.6937,1.694,1.6963,1.6964,1.6996,1.7118,1.7145,1.7043,1.7044,1.7044,1.7045,1.7045,1.6795,1.6828,1.6795,1.6791,1.6798,1.6781,1.682,1.6808,1.681,1.6796,1.6833,1.6918,1.6937,1.6948,1.6971,1.683,1.683,1.683,1.683,1.6714,1.6727,1.6697,1.6688,1.6684,1.6714,1.6668,1.6684,1.6706,1.6707,1.6732,1.6766,1.6776,1.6789,1.6803,1.6824,1.6649,1.6649,1.6649,1.6635,1.6648,1.6606,1.6629,1.6636,1.6639,1.6595,1.6579,1.6611,1.6642,1.6707,1.6715,1.677,1.6787,1.6818,1.6839,1.688,0,0]}]]